Voltar ao catálogo

SL-16 DEB

AtivoLEO
NORAD 22418·DEBRIS·🇷🇺 Russia

Lançado Dec 25, 1992 de Baikonur Cosmodrome

Loading…

Próximas Passagens (próximas 24 horas)

TLE

AtualizadoSource: Space-Track

Época: Sep 14, 2026, 14:23 UTC

1 22418U 92093DK  26257.59990132  .00000342  00000-0  22281-3 0  9997
2 22418  71.1238 114.1063 0125910 282.4399 106.4691 14.05475261718426

Acompanhe SL-16 DEB em tempo real com AllMySat

Download on the App Store